Weather History for Marfa, TX

Change the Weather History Date:

Wednesday, May 30, 2012

  Actual Average Record
Temperature  
Mean Temperature 73 °F -  
Max Temperature 93 °F 86 °F 100 °F (2011)
Min Temperature 53 °F 55 °F 48 °F (2007)
Cooling Degree Days 8    
Growing Degree Days 23 (Base 50)    
Moisture  
Dew Point 31 °F    
Average Humidity 26    
Maximum Humidity 67    
Minimum Humidity 10    
Precipitation  
Precipitation 0.00 in - - ()
Sea Level Pressure  
Sea Level Pressure 30.02 in    
Wind  
Wind Speed 10 mph (WNW)    
Max Wind Speed 24 mph    
Max Gust Speed 33 mph    
Visibility 10 miles    
Events      
Averages and records for this station are not official NWS values.
T = Trace of Precipitation, MM = Missing Value Source: NWS Daily Summary

Daily Weather History Graph

Daily Weather History Graph

Search for Another Location

Airport:

Trip Planner

Search our weather history database for the weather conditions in past years. The results will help you decide how hot, cold, wet, or windy it might be!

Date:

Astronomy

May. 30, 2012 Rise Set
Actual Time 6:54 AM CDT 8:52 PM CDT
Civil Twilight 6:27 AM CDT 9:19 PM CDT
Nautical Twilight 5:55 AM CDT 9:52 PM CDT
Astronomical Twilight 5:20 AM CDT 10:27 PM CDT
Moon 3:52 PM CDT (5/30) 3:00 AM CDT (5/30)
Length of Visible Light 14h 51m
Length of Day
13h 57m
Waxing Gibbous, 70% of the Moon is Illuminated
May 30
Waxing Gibbous
Jun 4
Full
Jun 11
Last Quarter
Jun 19
New
Jun 26
First Quarter

Hourly Weather History & Observations

Time (CDT) Temp. Dew Point Humidity Pressure Visibility Wind Dir Wind Speed Gust Speed Precip Events Conditions
12:15 AM 64.4 °F 24.8 °F 22% 30.07 in 10.0 mi NNW 9.2 mph - N/A   Clear
12:35 AM 64.4 °F 26.6 °F 24% 30.07 in 10.0 mi WNW 11.5 mph - N/A   Clear
12:55 AM 66.2 °F 33.8 °F 30% 30.07 in 10.0 mi WNW 4.6 mph - N/A   Clear
1:15 AM 64.4 °F 30.2 °F 28% 30.07 in 10.0 mi NW 6.9 mph - N/A   Clear
1:35 AM 64.4 °F 33.8 °F 32% 30.07 in 10.0 mi WNW 5.8 mph - N/A   Clear
1:55 AM 62.6 °F 35.6 °F 37% 30.06 in 10.0 mi WNW 5.8 mph - N/A   Clear
2:15 AM 62.6 °F 37.4 °F 39% 30.06 in 10.0 mi NNW 8.1 mph - N/A   Clear
2:35 AM 60.8 °F 35.6 °F 39% 30.05 in 10.0 mi NNW 8.1 mph - N/A   Clear
2:55 AM 62.6 °F 39.2 °F 42% 30.05 in 10.0 mi North 6.9 mph - N/A   Clear
3:15 AM 60.8 °F 37.4 °F 42% 30.05 in 10.0 mi North 6.9 mph - N/A   Clear
3:35 AM 59.0 °F 37.4 °F 45% 30.05 in 10.0 mi North 4.6 mph - N/A   Clear
3:55 AM 57.2 °F 37.4 °F 48% 30.04 in 10.0 mi North 4.6 mph - N/A   Clear
4:15 AM 57.2 °F 35.6 °F 44% 30.04 in 10.0 mi NNW 4.6 mph - N/A   Clear
4:35 AM 57.2 °F 37.4 °F 48% 30.04 in 10.0 mi NW 3.5 mph - N/A   Clear
4:55 AM 53.6 °F 35.6 °F 51% 30.04 in 10.0 mi NNW 6.9 mph - N/A   Clear
5:15 AM 53.6 °F 35.6 °F 51% 30.04 in 10.0 mi North 5.8 mph - N/A   Clear
5:35 AM 53.6 °F 37.4 °F 54% 30.04 in 10.0 mi North 4.6 mph - N/A   Clear
5:55 AM 53.6 °F 37.4 °F 54% 30.04 in 10.0 mi North 4.6 mph - N/A   Clear
6:15 AM 53.6 °F 39.2 °F 58% 30.04 in 10.0 mi North 6.9 mph - N/A   Clear
6:35 AM 53.6 °F 41.0 °F 62% 30.05 in 10.0 mi North 6.9 mph - N/A   Clear
6:55 AM 53.6 °F 41.0 °F 62% 30.05 in 10.0 mi North 5.8 mph - N/A   Clear
7:15 AM 55.4 °F 42.8 °F 63% 30.05 in 10.0 mi North 6.9 mph - N/A   Clear
7:35 AM 55.4 °F 44.6 °F 67% 30.06 in 10.0 mi North 6.9 mph - N/A   Clear
7:55 AM 60.8 °F 46.4 °F 59% 30.06 in 10.0 mi North 4.6 mph - N/A   Clear
8:15 AM 66.2 °F 50.0 °F 56% 30.07 in 10.0 mi NNW 4.6 mph - N/A   Clear
8:35 AM 69.8 °F 51.8 °F 53% 30.07 in 10.0 mi Calm Calm - N/A   Clear
8:55 AM 73.4 °F 53.6 °F 50% 30.07 in 10.0 mi Calm Calm - N/A   Clear
9:15 AM 75.2 °F 53.6 °F 47% 30.07 in 10.0 mi Calm Calm - N/A   Clear
9:35 AM 77.0 °F 48.2 °F 36% 30.08 in 10.0 mi Calm Calm - N/A   Clear
9:55 AM 78.8 °F 48.2 °F 34% 30.08 in 10.0 mi SSW 5.8 mph - N/A   Clear
10:15 AM 84.2 °F 26.6 °F 12% 30.08 in 10.0 mi WNW 13.8 mph 18.4 mph N/A   Clear
10:35 AM 86.0 °F 24.8 °F 11% 30.07 in 10.0 mi WNW 13.8 mph - N/A   Clear
10:55 AM 87.8 °F 24.8 °F 10% 30.07 in 10.0 mi WNW 13.8 mph 17.3 mph N/A   Clear
11:15 AM 87.8 °F 24.8 °F 10% 30.07 in 10.0 mi WNW 12.7 mph 18.4 mph N/A   Clear
11:35 AM 87.8 °F 24.8 °F 10% 30.07 in 10.0 mi West 12.7 mph 20.7 mph N/A   Clear
11:55 AM 89.6 °F 26.6 °F 10% 30.06 in 10.0 mi WNW 19.6 mph 24.2 mph N/A   Clear
12:15 PM 89.6 °F 26.6 °F 10% 30.06 in 10.0 mi West 20.7 mph 26.5 mph N/A   Clear
12:35 PM 89.6 °F 26.6 °F 10% 30.06 in 10.0 mi West 13.8 mph 21.9 mph N/A   Clear
12:55 PM 91.4 °F 26.6 °F 10% 30.05 in 10.0 mi West 16.1 mph 23.0 mph N/A   Clear
1:15 PM 91.4 °F 26.6 °F 10% 30.05 in 10.0 mi West 11.5 mph 20.7 mph N/A   Clear
1:35 PM 91.4 °F 28.4 °F 10% 30.04 in 10.0 mi West 18.4 mph 26.5 mph N/A   Clear
1:55 PM 91.4 °F 28.4 °F 10% 30.04 in 10.0 mi West 17.3 mph 24.2 mph N/A   Clear
2:35 PM 93.2 °F 28.4 °F 10% 30.02 in 10.0 mi West 19.6 mph 26.5 mph N/A   Clear
2:55 PM 93.2 °F 28.4 °F 10% 30.01 in 10.0 mi West 17.3 mph 27.6 mph N/A   Clear
3:15 PM 93.2 °F 28.4 °F 10% 30.00 in 10.0 mi WSW 19.6 mph 25.3 mph N/A   Clear
3:35 PM 93.2 °F 28.4 °F 10% 29.99 in 10.0 mi West 20.7 mph 33.4 mph N/A   Clear
3:55 PM 93.2 °F 30.2 °F 11% 29.99 in 10.0 mi West 21.9 mph 27.6 mph N/A   Clear
4:15 PM 93.2 °F 30.2 °F 11% 29.98 in 10.0 mi West 15.0 mph 31.1 mph N/A   Clear
4:35 PM 93.2 °F 28.4 °F 10% 29.97 in 10.0 mi SW 17.3 mph 26.5 mph N/A   Clear
4:55 PM 93.2 °F 30.2 °F 11% 29.96 in 10.0 mi WSW 24.2 mph 29.9 mph N/A   Clear
5:15 PM 93.2 °F 30.2 °F 11% 29.96 in 10.0 mi WSW 16.1 mph 25.3 mph N/A   Clear
5:35 PM 93.2 °F 30.2 °F 11% 29.96 in 10.0 mi WSW 15.0 mph 23.0 mph N/A   Clear
5:55 PM 93.2 °F 30.2 °F 11% 29.95 in 10.0 mi West 20.7 mph 26.5 mph N/A   Clear
6:15 PM 93.2 °F 28.4 °F 10% 29.95 in 10.0 mi West 16.1 mph 26.5 mph N/A   Clear
6:35 PM 91.4 °F 28.4 °F 10% 29.94 in 10.0 mi WSW 16.1 mph 26.5 mph N/A   Clear
6:55 PM 91.4 °F 28.4 °F 10% 29.93 in 10.0 mi WSW 24.2 mph - N/A   Clear
7:15 PM 91.4 °F 28.4 °F 10% 29.94 in 10.0 mi West 17.3 mph - N/A   Clear
7:35 PM 91.4 °F 26.6 °F 10% 29.94 in 10.0 mi West 17.3 mph - N/A   Clear
7:55 PM 89.6 °F 26.6 °F 10% 29.93 in 10.0 mi West 17.3 mph 23.0 mph N/A   Clear
8:35 PM 84.2 °F 24.8 °F 11% 29.93 in 10.0 mi WNW 11.5 mph - N/A   Clear
8:55 PM 82.4 °F 21.2 °F 10% 29.93 in 10.0 mi WNW 9.2 mph - N/A   Clear
9:15 PM 78.8 °F 17.6 °F 10% 29.93 in 10.0 mi WNW 10.4 mph - N/A   Clear
9:35 PM 73.4 °F 15.8 °F 11% 29.94 in 10.0 mi NW 9.2 mph - N/A   Clear
9:55 PM 73.4 °F 14.0 °F 10% 29.94 in 10.0 mi NW 10.4 mph - N/A   Clear
10:15 PM 69.8 °F 12.2 °F 11% 29.94 in 10.0 mi NNW 10.4 mph - N/A   Clear
10:35 PM 69.8 °F 12.2 °F 11% 29.95 in 10.0 mi NNW 11.5 mph - N/A   Clear
10:55 PM 66.2 °F 10.4 °F 11% 29.95 in 10.0 mi NNW 11.5 mph - N/A   Clear
11:15 PM 68.0 °F 12.2 °F 12% 29.96 in 10.0 mi NNW 11.5 mph - N/A   Clear
11:35 PM 64.4 °F 12.2 °F 13% 29.96 in 10.0 mi NNW 10.4 mph - N/A   Clear
11:55 PM 62.6 °F 12.2 °F 14% 29.96 in 10.0 mi NW 10.4 mph - N/A   Clear